User: anonymous   Login
Location: Unspecified
(0.0000°N, 0.0000°E)
Time: 12:04:47
(UTC+00:00)
Language:

Vanguard 3 - Orbit

View from above orbital plane
View from above orbital plane
View from above satellite
View from above satellite

Ground track
Ground track

The orbit data is extracted from the following two-line orbital elements,

1 00020U 59007A   15116.81623280  .00002707  00000-0  11303-2 0  9993
2 00020 033.3443 031.6166 1669194 025.7922 341.7128 11.54676511 13298
Epoch (UTC): 26 April 2015 19:35:22
Eccentricity: 0.1669194
inclination: 33.3443°
perigee height: 510 km
apogee height: 3270 km
right ascension of ascending node: 31.6166°
argument of perigee: 25.7922°
revolutions per day: 11.54676511
mean anomaly at epoch: 341.7128°
orbit number at epoch: 1329

The dashed part of the orbit path shows where the satellite is in the earth's shadow,  

DLR